Regional Weather Roundup
Issued by NWS

Home | Current Version | Previous Version | Text Only | Print | Product List | Glossary On
Versions: 1 2 3 4 5 6 7 8 9 10 11 12 13 14 15 16 17 18 19 20 21 22 23 24 25 26 27 28 29 30 31 32 33 34 35 36 37 38 39 40 41 42 43 44 45 46 47 48 49 50
000
ASUS43 KBIS 251001
RWRND

NORTH DAKOTA REGIONAL WEATHER ROUNDUP
NATIONAL WEATHER SERVICE BISMARCK ND
500 AM CDT SAT APR 25 2015

NOTE: "FAIR" INDICATES FEW OR NO CLOUDS BELOW 12,000 FEET WITH NO
SIGNIFICANT WEATHER AND/OR OBSTRUCTIONS TO VISIBILITY.


NDZ001>003-009>011-017-251100-
NORTHWEST NORTH DAKOTA

CITY           SKY/WX    TMP DP  RH WIND       PRES   REMARKS
WILLISTON      CLOUDY    47  39  74 E7        29.69R
MINOT          CLEAR     36  34  92 E7        29.77R FOG
MINOT AFB      CLEAR     34  34 100 SE7       29.77R FOG
$$

NDZ018>021-031>035-040>046-251100-
SOUTHWEST NORTH DAKOTA

CITY           SKY/WX    TMP DP  RH WIND       PRES   REMARKS
BISMARCK       CLOUDY    44  41  89 E10       29.75R
DICKINSON      FOG       42  40  92 SE18      29.69S VSB 1/4
GARRISON         N/A     40  39  97 SE9       29.75R
HETTINGER ARPT FOG       42  41  96 SE9       29.71R VSB 1/4
$$

NDZ004>008-012>016-024-026-027-054-251100-
NORTHEAST NORTH DAKOTA

CITY           SKY/WX    TMP DP  RH WIND       PRES   REMARKS
GRAND FORKS    CLOUDY    44  33  65 E7        29.84R
GRND FRKS AFB  CLOUDY    43  33  67 E7        29.84R
DEVILS LAKE    CLOUDY    43  36  75 SE7       29.81R
$$

NDZ022-023-025-028>030-036>039-047>053-251100-
SOUTHEAST NORTH DAKOTA

CITY           SKY/WX    TMP DP  RH WIND       PRES   REMARKS
FARGO          CLOUDY    43  36  76 E9        29.80R
JAMESTOWN      CLOUDY    42  41  96 E13       29.77R FOG
$$




USA.gov is the U.S. government's official web portal to all federal, state and local government web resources and services.